Вернуться в каталог

STARLINK-11271

АктивенСвязьVLEO
NORAD 60915·PAYLOAD·🇺🇸 United States

Запущен Aug 31, 2024 с Cape Canaveral Space Force Station

Loading…

Ближайшие Пролёты (ближайшие 24 часа)

TLE

СвежийSource: CelesTrak SupGP

Эпоха: Sep 14, 2026, 22:57 UTC

1 60915C 24154N   26257.95673611  .00058472  00000+0  48164-3 0  2575
2 60915  53.1565 278.0396 0001027  98.8464 262.6472 15.69680824    11

Отслеживайте STARLINK-11271 в реальном времени с AllMySat

Download on the App Store